Location: Chena
(64.8152°N, 147.9227°W)
Time: 17:35:11
(UTC+00:00)

CUBEBUG 2 - Visible Passes

Search period start: 16 April 2021 00:00
Search period end: 26 April 2021 00:00
Orbit: 584 x 698 km, 97.7° (Epoch: 15 April)

Date Brightness Start Highest point End Pass type
(mag) Time Alt. Az. Time Alt. Az. Time Alt. Az.
16 Apr ? 12:28:32 10° NE 12:31:03 15° E 12:33:35 10° ESE visible
17 Apr ? 12:51:56 10° NE 12:55:12 21° E 12:58:30 10° SE visible
19 Apr ? 12:04:32 10° ENE 12:05:36 11° ENE 12:06:42 10° E visible
20 Apr ? 12:27:16 10° NE 12:29:50 15° E 12:32:26 10° ESE visible
21 Apr ? 12:50:40 10° NE 12:53:59 22° E 12:57:21 10° SE visible
23 Apr ? 12:03:11 10° ENE 12:04:23 11° ENE 12:05:35 10° E visible
24 Apr ? 12:25:59 10° NE 12:28:36 16° E 12:31:16 10° ESE visible
